Weather History for Rifle, CO

Change the Weather History Date:

Tuesday, March 25, 2014

  Actual Average Record
Temperature  
Mean Temperature 45 °F 42 °F  
Max Temperature 65 °F 56 °F 75 °F (2012)
Min Temperature 24 °F 28 °F 11 °F (1965)
Degree Days  
Heating Degree Days 20 23  
Month to date heating degree days 598 655  
Since 1 July heating degree days 5809 5652  
Cooling Degree Days 0 0  
Month to date cooling degree days 0 0  
Year to date cooling degree days 0 0  
Moisture  
Dew Point 15 °F    
Average Humidity 37    
Maximum Humidity 63    
Minimum Humidity 11    
Precipitation  
Precipitation 0.00 in 0.04 in 0.29 in (1958)
Month to date precipitation 0.36 0.87  
Year to date precipitation 1.76 2.44  
Sea Level Pressure  
Sea Level Pressure 29.99 in    
Wind  
Wind Speed 6 mph (SW)    
Max Wind Speed 26 mph    
Max Gust Speed 32 mph    
Visibility 10 miles    
Events      
T = Trace of Precipitation, MM = Missing Value Source: NWS Daily Summary

Daily Weather History Graph

Daily Weather History Graph

Search for Another Location

Airport:

Trip Planner

Search our weather history database for the weather conditions in past years. The results will help you decide how hot, cold, wet, or windy it might be!

Date:

Astronomy

Mar. 25, 2014 Rise Set
Actual Time 7:06 AM MDT 7:28 PM MDT
Civil Twilight 6:39 AM MDT 7:54 PM MDT
Nautical Twilight 6:07 AM MDT 8:26 PM MDT
Astronomical Twilight 5:35 AM MDT 8:58 PM MDT
Moon 3:29 AM MDT (3/25) 2:03 PM MDT (3/25)
Length of Visible Light 13h 15m
Length of Day
12h 21m
Waning Crescent, 31% of the Moon is Illuminated
Mar 25
Waning Crescent
Mar 30
New
Apr 7
First Quarter
Apr 15
Full
Apr 22
Last Quarter

Hourly Weather History & Observations

Time (MDT) Temp. Windchill Dew Point Humidity Pressure Visibility Wind Dir Wind Speed Gust Speed Precip Events Conditions
12:53 AM 32.0 °F - 17.1 °F 54% 30.18 in 10.0 mi Calm Calm - N/A   Clear
1:53 AM 30.9 °F - 17.1 °F 57% 30.16 in 10.0 mi Calm Calm - N/A   Clear
2:53 AM 30.0 °F 25.2 °F 17.1 °F 59% 30.18 in 10.0 mi East 4.6 mph - N/A   Clear
3:53 AM 28.0 °F 24.2 °F 17.1 °F 63% 30.17 in 10.0 mi East 3.5 mph - N/A   Clear
4:53 AM 27.0 °F - 16.0 °F 63% 30.17 in 10.0 mi Calm Calm - N/A   Clear
5:53 AM 28.0 °F - 16.0 °F 61% 30.16 in 10.0 mi Calm Calm - N/A   Clear
6:53 AM 26.1 °F - 16.0 °F 66% 30.18 in 10.0 mi Calm Calm - N/A   Clear
7:53 AM 28.0 °F 22.8 °F 16.0 °F 61% 30.19 in 10.0 mi South 4.6 mph - N/A   Clear
8:53 AM 33.1 °F - 18.0 °F 54% 30.20 in 10.0 mi Calm Calm - N/A   Clear
9:53 AM 42.1 °F - 17.1 °F 37% 30.16 in 10.0 mi Calm Calm - N/A   Clear
10:53 AM 46.9 °F - 16.0 °F 29% 30.11 in 10.0 mi Calm Calm - N/A   Clear
11:53 AM 51.1 °F - 16.0 °F 25% 30.05 in 10.0 mi Calm Calm - N/A   Clear
12:53 PM 55.9 °F - 10.9 °F 17% 30.00 in 10.0 mi Variable 3.5 mph - N/A   Clear
1:53 PM 60.1 °F - 10.9 °F 14% 29.94 in 10.0 mi West 6.9 mph - N/A   Clear
2:53 PM 64.0 °F - 9.0 °F 12% 29.88 in 10.0 mi West 16.1 mph 20.7 mph N/A   Clear
3:53 PM 64.0 °F - 9.0 °F 12% 29.84 in 10.0 mi West 24.2 mph 32.2 mph N/A   Clear
4:53 PM 64.0 °F - 9.0 °F 12% 29.82 in 10.0 mi West 20.7 mph 26.5 mph N/A   Clear
5:53 PM 63.0 °F - 10.0 °F 13% 29.80 in 10.0 mi West 16.1 mph - N/A   Clear
6:53 PM 60.1 °F - 10.9 °F 14% 29.80 in 10.0 mi West 9.2 mph - N/A   Clear
7:53 PM 53.1 °F - 12.0 °F 20% 29.79 in 10.0 mi West 9.2 mph - N/A   Clear
8:53 PM 48.0 °F - 15.1 °F 27% 29.79 in 10.0 mi South 8.1 mph - N/A   Clear
9:53 PM 44.1 °F 37.4 °F 19.0 °F 37% 29.77 in 10.0 mi ESE 13.8 mph - N/A   Clear
10:53 PM 39.9 °F - 19.0 °F 43% 29.76 in 10.0 mi Calm Calm - N/A   Clear
11:53 PM 37.0 °F 34.5 °F 18.0 °F 46% 29.75 in 10.0 mi Variable 3.5 mph - N/A   Clear